Preview of NWS' New Version of Forecast
This preview is not operational and should not be used for support decisions.
Latest weather observations around

Harrison, Boone County Airport (KHRO)

Using English Units (Switch to International System of Units)
Date/ Time (CDT) Wind (mph) Vis. (mi) Weather Sky Cond. Temp (°F) Rel. Humidity Wind Chill (°F) Heat Index (°F) Pressure Precip. (in)
Air Dwpt 6 hour Altimeter (inHg) Sea level (inHg) 1 hr 3 hr 6 hr
Max Min
Jun 18 06:53 S 3 10 Clear CLR 75 69     82%   76 30.1 30.05      
Jun 18 05:53 S 5 10 Clear CLR 73 69     87%   74 30.08 30.03      
Jun 18 04:53 SSE 9 10 Clear CLR 74 70     87%   75 30.06 30.01      
Jun 18 03:53 SSE 7 10 Clear CLR 74 70     87%   75 30.06 30      
Jun 18 02:53 S 5 10 Clear CLR 74 69     85%   75 30.05 30      
Jun 18 01:53 SSE 7 10 Clear CLR 76 69     79%   77 30.05 30      
Jun 18 00:53 SE 7 10 Clear CLR 76 69     79%   77 30.07 30.01      
Jun 17 23:53 3 10 Clear CLR 76 69     79%   77 30.07 30.02      
Jun 17 22:53 SSE 6 10 Clear CLR 78 69     74%   79 30.08 30.02      
Jun 17 21:53 S 5 10 Clear CLR 78 70     76%   79 30.06 30.01      
Jun 17 20:53 S 3 10 Clear CLR 80 70     71%   83 30.04 29.99      
Jun 17 19:53 SSE 11 10 Clear CLR 84 69     61%   88 30.03 29.98      
Jun 17 18:53 S 11 10 Clear CLR 87 69     55%   91 30.02 29.97      
Jun 17 17:53 SSE 15 10 Clear CLR 89 67     48%   92 30.03 29.98      
Jun 17 16:53 S 9 10 Clear CLR 88 69     54%   92 30.04 29.99      
Jun 17 15:53 S 9 10 Mostly Clear FEW049 FEW060 91 69     49%   96 30.05 29.99      
Jun 17 14:53 S 13 10 Mostly Clear FEW050 91 67     45%   94 30.06 30.01      
Jun 17 13:53 S 8 10 Mostly Clear FEW045 88 69     54%   92 30.07 30.02      
Jun 17 12:53 S 9 10 Partly Cloudy FEW041 FEW075 SCT100 88 69     54%   92 30.08 30.03      
Jun 17 11:53 S 11 10 Mostly Clear FEW041 88 68     52%   92 30.09 30.03      
Jun 17 10:53 S 11 10 Mostly Clear FEW033 87 70     57%   92 30.09 30.03      
Jun 17 09:53 S 11 10 Clear CLR 84 71     65%   89 30.09 30.03      
Jun 17 08:53 S 8 10 Clear CLR 80 71     74%   84 30.09 30.03      
Jun 17 07:53 SSE 8 10 Clear CLR 76 71     85%   77 30.09 30.03      
Jun 17 06:53 ESE 3 10 Clear CLR 73 70     90%   74 30.07 30.01      
Jun 17 05:53 SSE 3 10 Clear CLR 71 69     93%   72 30.05 30      
Jun 17 04:53 SSE 6 10 Clear CLR 72 69     91%   73 30.03 29.98      
Jun 17 03:53 S 6 10 Clear CLR 72 69     91%   73 30.01 29.95      
Jun 17 02:53 SSE 6 10 Clear CLR 73 69     87%   74 30.01 29.96      
Jun 17 00:53 SSE 6 10 Clear CLR 76 69     79%   77 30.03 29.97      
Jun 16 23:53 S 6 10 Clear CLR 76 69     79%   77 30.03 29.97      
Jun 16 22:53 S 6 10 Clear CLR 78 69     74%   79 30.02 29.96      
Jun 16 21:53 S 3 10 Clear CLR 78 70     76%   79 30 29.95      
Jun 16 20:53 SSE 6 10 Clear CLR 82 69     65%   85 29.98 29.92      
Jun 16 19:53 SSE 8 10 Clear CLR 85 69     59%   89 29.97 29.91      
Jun 16 18:53 SSE 13 10 Clear CLR 88 69     54%   92 29.96 29.91      
Jun 16 17:53 S 11 10 Clear CLR 90 67     47%   93 29.96 29.91      
Jun 16 16:53 S 9 10 Clear CLR 90 67     47%   93 29.97 29.91      
Jun 16 15:53 SSE 15 10 Mostly Clear FEW055 93 66     41%   96 29.98 29.92      
Jun 16 14:53 SSE 15 10 Mostly Clear FEW050 91 68     47%   95 29.98 29.93      
Jun 16 13:53 S 9 10 Clear CLR 91 68     47%   95 29.99 29.93      
Jun 16 12:53 SSE 10 10 Partly Cloudy SCT048 SCT060 90 68     49%   94 30 29.95      
Jun 16 11:53 SSE 11 10 Mostly Clear FEW041 FEW050 90 69     50%   95 30.01 29.95      
Jun 16 10:53 S 9 10 Mostly Clear FEW040 88 69     54%   92 30.02 29.96      
Jun 16 09:53 SSW 10 10 Clear CLR 85 68     57%   88 30.02 29.96      
Jun 16 08:53 S 6 10 Clear CLR 83 70     65%   87 30.03 29.97      
Jun 16 07:53 Calm 10 Clear CLR 78 70     76%   79 30.03 29.97      
Jun 16 06:53 SSE 6 10 Clear CLR 74 69     85%   75 30.01 29.96      
Jun 16 05:53 SSE 5 10 Clear CLR 71 68     90%   72 30 29.95      
Jun 16 04:53 SSE 5 10 Clear CLR 72 68     87%   73 29.99 29.93      
Jun 16 03:53 SSE 5 10 Clear CLR 73 69     87%   74 29.99 29.93      
Jun 16 02:53 SSE 3 10 Clear CLR 73 69     87%   74 29.98 29.93      
Jun 16 01:53 Calm 10 Clear CLR 75 69     82%   76 29.99 29.93      
Jun 16 00:53 S 5 10 Clear CLR 74 69     85%   75 29.99 29.93      
Jun 15 23:53 S 6 10 Clear CLR 76 70     82%   77 29.99 29.93      
Jun 15 22:53 S 3 10 Clear CLR 77 70     79%   78 29.99 29.93      
Jun 15 21:53 SSW 3 10 Clear CLR 80 69     69%   83 29.98 29.92      
Jun 15 20:53 SSE 7 10 Mostly Clear FEW055 83 69     63%   87 29.95 29.89      
Jun 15 19:53 SSE 11 10 Clear CLR 86 69     57%   90 29.94 29.89      
Jun 15 18:53 S 13 10 Clear CLR 88 68     52%   92 29.93 29.88      
Jun 15 17:53 SSE 13 10 Clear CLR 90 66     45%   93 29.93 29.88      
Jun 15 16:53 SSE 10 10 Clear CLR 91 67     45%   94 29.94 29.88      
Jun 15 15:53 SSE 14 10 Mostly Clear FEW055 92 68     46%   96 29.96 29.91      
Jun 15 14:53   10 Mostly Clear FEW048 92 68     46%   96 29.97 29.91      
Jun 15 13:53 SSE 8 10 Mostly Clear FEW045 FEW060 91 69     49%   96 29.98 29.93      
Jun 15 12:53 S 13 10 Partly Cloudy SCT044 90 70     52%   95 30 29.95      
Jun 15 11:53 SSE 11 10 Clear CLR 89 69     52%   94 30.01 29.96      
Jun 15 10:53 S 9 10 Clear CLR 88 70     55%   93 30.01 29.96      
Jun 15 09:53 S 8 10 Clear CLR 85 70     61%   89 30.02 29.97      
Jun 15 08:53 S 6 10 Clear CLR 81 71     72%   85 30.03 29.98      
Jun 15 07:53 SE 5 10 Clear CLR 77 71     82%   78 30.03 29.97      
Jun 15 06:53 SE 5 7 Clear CLR 73 70     90%   74 30.02 29.97      
May 15 03:53 NW 14 10 Clear   66 61     84%     30 29.96      
May 14 12:53 7 10 Clear CLR 86 64     48%   87 30.02 29.97      
May 14 10:53 5 10 Clear CLR 82 67     60%   85 30.03 29.98      
May 14 04:53 S 5 10 Clear   67 64     90%     30.02 29.97      
May 12 19:53 S 6 10 Clear CLR 75 63     66%   75 30 29.96      
May 12 08:53 S 10 10 Clear CLR 74 64     71%   74 30.03 29.99      
May 12 03:53 Calm 10 Clear CLR 69 61     75%     29.95 29.91      
May 12 02:53 S 5 10 Clear   72 61     68%   72 29.96 29.91      
May 11 23:53 S 14 10 Clear CLR 73 61     66%   73 29.93 29.88      
May 11 17:53   10 Clear CLR 82 59     46%   82 29.88 29.83      
Jun 12 02:53 SE 8 10 Clear CLR 71 67     87%   72 29.99 29.94      
Jun 11 14:53 S 11 10 Clear   84 66     55%   86 30.02 29.97      
Jun 11 13:53   10 Mostly Clear FEW046 83 64     53%   84 30.02 29.97      
Jun 11 04:53 S 7 10 Clear CLR 68 63     84%     29.98 29.93      
Jun 10 18:53 S 10 10 Clear CLR 78 64     62%   79 29.92 29.89      
Jun 10 13:53 SSE 11 10 Clear CLR 81 63     54%   82 29.96 29.93      
Jun 10 12:53 SSE 13 10 Clear CLR 80 61     52%   81 29.97 29.94      
Jun 09 19:53 S 6 10 Clear CLR 74 58     57%   74 29.92 29.88      
Jun 08 07:53 W 5 10 Clear CLR 59 54     83%     30.08 30.05      
Jun 07 10:53 ENE 6 10 Clear CLR 70 54     57%     30.08 30.05      
Jun 06 11:53 N 8 10 Clear CLR 81 67     62%   83 29.93 29.88